This is the latest recevied weather packets stored in our database for station/object K3PPP. If no packets are shown the sender has not sent any weather packets the latest 10 day(s).
| Time | Temp. | Humidity | Pressure | Rain* | Wind** | Luminosity | Snow |
|---|---|---|---|---|---|---|---|
| 1777929559 | 18.33° C | 53% | 1009.9 hPa | 0 mm | - | 116 W/m² | - |
| 1777929255 | 18.89° C | 52% | 1009.9 hPa | 0 mm | - | 91 W/m² | - |
| 1777928953 | 20° C | 50% | 1009.8 hPa | 0 mm | - | 447 W/m² | - |
| 1777928650 | 18.89° C | 51% | 1009.9 hPa | 0 mm | - | 502 W/m² | - |
| 1777928347 | 20° C | 49% | 1009.8 hPa | 0 mm | - | 462 W/m² | - |
| 1777928044 | 19.44° C | 48% | 1010 hPa | 0 mm | - | 412 W/m² | - |
| 1777927742 | 20° C | 51% | 1009.7 hPa | 0 mm | - | 160 W/m² | - |
| 1777927440 | 20° C | 50% | 1009.8 hPa | 0 mm | - | 282 W/m² | - |
| 1777927140 | 20° C | 51% | 1009.8 hPa | 0 mm | - | 433 W/m² | - |
| 1777926836 | 20° C | 48% | 1009.8 hPa | 0 mm | - | 232 W/m² | - |
| 1777926532 | 18.89° C | 50% | 1009.8 hPa | 0 mm | - | 654 W/m² | - |
| 1777926229 | 18.89° C | 51% | 1009.8 hPa | 0 mm | - | 200 W/m² | - |
| 1777925925 | 19.44° C | 51% | 1009.9 hPa | 0 mm | - | 649 W/m² | - |
| 1777925623 | 20° C | 50% | 1009.9 hPa | 0 mm | - | 340 W/m² | - |
| 1777925320 | 19.44° C | 51% | 1009.8 hPa | 0 mm | - | 180 W/m² | - |
| 1777925017 | 18.89° C | 51% | 1009.6 hPa | 0 mm | - | 637 W/m² | - |
| 1777924713 | 18.89° C | 51% | 1009.8 hPa | 0 mm | - | 219 W/m² | - |
| 1777924409 | 18.89° C | 53% | 1009.9 hPa | 0 mm | - | 677 W/m² | - |
| 1777924106 | 20° C | 51% | 1010 hPa | 0 mm | - | 690 W/m² | - |
| 1777923802 | 19.44° C | 53% | 1010 hPa | 0 mm | - | 569 W/m² | - |
| 1777923498 | 19.44° C | 52% | 1010.2 hPa | 0 mm | - | 277 W/m² | - |
| 1777923196 | 19.44° C | 52% | 1010 hPa | 0 mm | - | 666 W/m² | - |
| 1777922894 | 18.89° C | 53% | 1010.2 hPa | 0 mm | - | 762 W/m² | - |
| 1777922592 | 18.89° C | 54% | 1010.4 hPa | 0 mm | - | 704 W/m² | - |
| 1777922290 | 19.44° C | 56% | 1010.1 hPa | 0 mm | - | 831 W/m² | - |
* Rain latest hour (hover to see other rain measurements)
** Current wind speed in m/s (hover to see current wind gust speed)